Weather History for Pineville, WV

Change the Weather History Date:

Thursday, June 6, 2013

  Actual Average (KBKW) Record (KBKW)
Temperature  
Mean Temperature 72 °F 65 °F  
Max Temperature 82 °F 75 °F 91 °F (1925)
Min Temperature 63 °F 55 °F 38 °F (1926)
Degree Days  
Heating Degree Days 0 2  
Month to date heating degree days 16  
Since 1 June heating degree days 16  
Since 1 July heating degree days 5317  
Cooling Degree Days 8 2  
Month to date cooling degree days 12  
Year to date cooling degree days 53  
Since 1 June cooling degree days 12  
Growing Degree Days 22 (Base 50)    
Moisture  
Dew Point 68 °F    
Average Humidity 91    
Maximum Humidity 100    
Minimum Humidity 66    
Precipitation  
Precipitation 0.00 in 0.14 in 2.31 in (1953)
Month to date precipitation 0.83  
Year to date precipitation 17.99  
Snow  
Snow 0.00 in - - ()
Month to date snowfall  
Since 1 September snowfall  
Snow Depth -    
Sea Level Pressure  
Sea Level Pressure 29.94 in    
Wind  
Wind Speed - (North)    
Max Wind Speed -    
Max Gust Speed -    
Visibility 7 miles    
Events Rain    
T = Trace of Precipitation, MM = Missing Value Source: NWS Daily Summary

Daily Weather History Graph

Daily Weather History Graph

Search for Another Location

Airport:

Trip Planner

Search our weather history database for the weather conditions in past years. The results will help you decide how hot, cold, wet, or windy it might be!

Date:

Astronomy

Jun. 06, 2013 Rise Set
Actual Time 6:04 AM EDT 8:45 PM EDT
Civil Twilight 5:34 AM EDT 9:16 PM EDT
Nautical Twilight 4:55 AM EDT 9:54 PM EDT
Astronomical Twilight 4:12 AM EDT 10:38 PM EDT
Moon 4:43 AM EDT (6/6) 7:07 PM EDT (6/6)
Length of Visible Light 15h 42m
Length of Day
14h 40m
Waning Crescent, 4% of the Moon is Illuminated
Jun 6
Waning Crescent
Jun 8
New
Jun 16
First Quarter
Jun 23
Full
Jun 30
Last Quarter

Hourly Weather History & Observations

Time (EDT) Temp. Heat Index Dew Point Humidity Pressure Visibility Wind Dir Wind Speed Gust Speed Precip Events Conditions
12:15 AM 66.2 °F - 66.2 °F 100% 30.06 in 4.0 mi North - - N/A Rain Rain
12:35 AM 65.7 °F - 65.7 °F 100% 30.05 in 3.0 mi North - - N/A Rain Rain
12:55 AM 65.5 °F - 65.5 °F 100% 30.05 in 2.5 mi North - - N/A   Light Drizzle
1:15 AM 65.5 °F - 65.5 °F 100% 30.04 in 2.0 mi North - - N/A   Drizzle
1:35 AM 65.5 °F - 65.5 °F 100% 30.04 in 2.5 mi North - - N/A   Light Drizzle
1:55 AM 65.3 °F - 65.3 °F 100% 30.03 in 2.5 mi North - - N/A   Overcast
2:15 AM 65.3 °F - 65.3 °F 100% 30.02 in 2.5 mi North - - N/A   Mostly Cloudy
2:35 AM 64.8 °F - 64.8 °F 100% 30.01 in 2.5 mi North - - N/A   Scattered Clouds
2:55 AM 64.6 °F - 64.6 °F 100% 30.01 in 2.5 mi North - - N/A   Scattered Clouds
3:15 AM 64.6 °F - 64.6 °F 100% 30.00 in 2.5 mi North - - N/A   Scattered Clouds
3:35 AM 64.6 °F - 64.6 °F 100% 29.99 in 2.5 mi North - - N/A   Mostly Cloudy
3:55 AM 64.8 °F - 64.8 °F 100% 29.98 in 2.5 mi North - - N/A   Mostly Cloudy
4:15 AM 64.4 °F - 64.4 °F 100% 29.98 in 4.0 mi North - - N/A   Mostly Cloudy
4:35 AM 64.2 °F - 64.2 °F 100% 29.98 in 4.0 mi North - - N/A   Mostly Cloudy
4:55 AM 64.2 °F - 64.2 °F 100% 29.98 in 2.5 mi North - - N/A   Overcast
5:15 AM 64.0 °F - 64.0 °F 100% 29.97 in 3.0 mi North - - N/A   Overcast
5:35 AM 63.9 °F - 63.9 °F 100% 29.98 in 4.0 mi North - - N/A   Overcast
5:55 AM 63.9 °F - 63.9 °F 100% 29.98 in 3.0 mi North - - N/A Rain Light Rain
6:15 AM 63.7 °F - 63.7 °F 100% 29.98 in 4.0 mi North - - N/A   Light Drizzle
6:35 AM 63.7 °F - 63.7 °F 100% 29.98 in 4.0 mi North - - N/A   Overcast
6:55 AM 63.9 °F - 63.9 °F 100% 29.98 in 2.5 mi North - - N/A   Overcast
7:15 AM 64.0 °F - 64.0 °F 100% 29.98 in 3.0 mi North - - N/A   Overcast
7:35 AM 64.4 °F - 64.4 °F 100% 29.98 in 3.0 mi North - - N/A   Overcast
7:55 AM 64.6 °F - 64.6 °F 100% 29.97 in 3.0 mi North - - N/A   Overcast
8:15 AM 65.3 °F - 65.3 °F 100% 29.97 in 4.0 mi North - - N/A   Overcast
8:35 AM 66.0 °F - 66.0 °F 100% 29.96 in 7.0 mi North - - N/A   Overcast
8:55 AM 67.1 °F - 67.1 °F 100% 29.97 in 7.0 mi North - - N/A   Overcast
9:15 AM 67.6 °F - 67.6 °F 100% 29.96 in 7.0 mi North - - N/A   Overcast
10:15 AM 71.4 °F - 67.5 °F 87% 29.95 in 10.0 mi North - - N/A   Mostly Cloudy
10:35 AM 72.7 °F - 67.6 °F 84% 29.95 in 10.0 mi North - - N/A   Scattered Clouds
10:55 AM 73.2 °F - 66.7 °F 80% 29.95 in 10.0 mi North - - N/A   Mostly Cloudy
11:15 AM 72.9 °F - 68.2 °F 85% 29.94 in 10.0 mi North - - N/A   Overcast
11:35 AM 72.5 °F - 69.4 °F 90% 29.95 in 10.0 mi North - - N/A   Overcast
11:55 AM 72.0 °F - 70.0 °F 93% 29.95 in 10.0 mi North - - N/A   Overcast
12:15 PM 73.0 °F - 68.9 °F 87% 29.95 in 10.0 mi North - - N/A   Overcast
12:35 PM 73.6 °F - 68.9 °F 85% 29.94 in 10.0 mi North - - N/A   Overcast
12:55 PM 74.7 °F - 68.2 °F 80% 29.94 in 10.0 mi North - - N/A   Overcast
1:15 PM 78.6 °F - 69.1 °F 72% 29.93 in 10.0 mi North - - N/A   Mostly Cloudy
1:35 PM 78.1 °F - 68.7 °F 73% 29.92 in 10.0 mi North - - N/A   Mostly Cloudy
1:55 PM 77.5 °F - 68.5 °F 74% 29.92 in 10.0 mi North - - N/A   Mostly Cloudy
2:15 PM 78.3 °F - 68.2 °F 71% 29.91 in 10.0 mi North - - N/A   Mostly Cloudy
2:35 PM 76.8 °F - 70.3 °F 80% 29.90 in 10.0 mi North - - N/A   Mostly Cloudy
2:55 PM 74.3 °F - 72.5 °F 94% 29.89 in 10.0 mi North - - N/A   Overcast
3:15 PM 77.7 °F - 70.5 °F 78% 29.89 in 10.0 mi North - - N/A   Mostly Cloudy
3:55 PM 79.0 °F - 70.0 °F 74% 29.89 in 10.0 mi North - - N/A   Scattered Clouds
4:15 PM 81.1 °F 84.5 °F 69.8 °F 68% 29.88 in 10.0 mi North - - N/A   Scattered Clouds
4:35 PM 82.8 °F 87.2 °F 70.7 °F 67% 29.87 in 10.0 mi North - - N/A   Scattered Clouds
4:55 PM 82.2 °F 86.0 °F 69.8 °F 66% 29.87 in 10.0 mi North - - N/A   Scattered Clouds
5:15 PM 79.5 °F - 70.2 °F 73% 29.87 in 10.0 mi North - - N/A   Mostly Cloudy
5:35 PM 77.5 °F - 70.3 °F 78% 29.87 in 10.0 mi North - - N/A   Overcast
5:55 PM 78.1 °F - 71.2 °F 79% 29.86 in 10.0 mi North - - N/A   Overcast
6:15 PM 76.6 °F - 72.3 °F 86% 29.86 in 10.0 mi North - - N/A   Overcast
6:35 PM 76.1 °F - 72.9 °F 90% 29.86 in 10.0 mi North - - N/A   Overcast
6:55 PM 78.1 °F - 72.9 °F 84% 29.86 in 10.0 mi North - - N/A   Scattered Clouds
7:15 PM 76.8 °F - 72.7 °F 87% 29.86 in 10.0 mi North - - N/A   Clear
7:35 PM 75.2 °F - 72.5 °F 91% 29.86 in 10.0 mi North - - N/A   Scattered Clouds
7:55 PM 75.6 °F - 70.9 °F 85% 29.87 in 10.0 mi North - - N/A   Mostly Cloudy
8:15 PM 74.1 °F - 70.0 °F 87% 29.87 in 10.0 mi North - - N/A   Mostly Cloudy
8:35 PM 73.8 °F - 67.8 °F 82% 29.87 in 10.0 mi North - - N/A   Mostly Cloudy
8:55 PM 71.1 °F - 68.9 °F 93% 29.87 in 10.0 mi North - - N/A   Mostly Cloudy
9:15 PM 69.6 °F - 68.0 °F 95% 29.87 in 10.0 mi North - - N/A   Scattered Clouds
9:35 PM 68.5 °F - 67.6 °F 97% 29.87 in 10.0 mi North - - N/A   Scattered Clouds
9:55 PM 68.9 °F - 68.0 °F 97% 29.87 in 10.0 mi North - - N/A   Mostly Cloudy
10:15 PM 69.1 °F - 68.4 °F 98% 29.87 in 10.0 mi North - - N/A   Overcast
10:35 PM 69.4 °F - 68.9 °F 98% 29.88 in 10.0 mi North - - N/A Rain Light Rain
10:55 PM 69.3 °F - 68.9 °F 99% 29.89 in 10.0 mi North - - N/A Rain Light Rain
11:15 PM 69.8 °F - 69.3 °F 98% 29.89 in 7.0 mi North - - N/A Rain Rain
11:35 PM 69.3 °F - 69.3 °F 100% 29.89 in 2.5 mi North - - N/A Rain Heavy Rain
11:55 PM 69.3 °F - 69.3 °F 100% 29.88 in 4.0 mi North - - N/A   Drizzle